[[{"header":{"parameterUnit":"m.s-1","parameterCategory":1,"la1":30.2991,"la2":30.254,"lo1":-89.0895,"lo2":-89.0444,"dy":0.0017,"dx":0.0017,"nx":28,"ny":28,"refTime":"2025-09-12T21:00:00:Z","depth":0,"parameterNumber":2,"parameterNumberName":"U-component_of_WINDS"},"data":[0,0,0,0,0,0,0,0,0,0,0,0,0,0,0,0,0,0,0,0,0,0,0,0,0,0,0,0,0,0,0,0,0,0,0,0,0,0,0,0,0,0,0,0,0,0,0,0,0,0,0,0,0,0,0,0,0,0,-0.6261,-0.6262,0,-0.6321,-0.6322,-0.6322,-0.6356,-0.6356,-0.6356,-0.6356,-0.6416,-0.6418,-0.6419,0,0,0,0,0,0,0,0,0,0,0,0,0,-0.6174,-0.6176,-0.6261,-0.6262,-0.6263,-0.6321,-0.6322,-0.6323,-0.6356,-0.6356,-0.6356,-0.6356,-0.6416,-0.6418,-0.6419,0,0,0,0,0,0,0,0,0,0,0,0,0,-0.6221,-0.6176,-0.6261,-0.6286,-0.6289,-0.6321,-0.6322,-0.6323,-0.6356,-0.6356,-0.6356,-0.6356,-0.6415,-0.6417,-0.642,-0.6431,0,0,-0.6427,-0.6428,0,0,0,0,0,0,0,0,-0.6218,-0.6224,-0.6282,-0.6284,-0.6288,-0.6331,-0.6313,-0.6359,-0.6355,-0.633,-0.6356,-0.6356,-0.6388,-0.6392,-0.6403,-0.6434,-0.6436,-0.6427,-0.6428,-0.6429,-0.643,0,0,0,0,0,0,0,-0.6215,-0.6222,-0.6285,-0.6282,-0.6286,-0.6294,-0.6301,-0.6322,-0.6357,-0.6332,-0.6335,-0.6342,-0.6389,-0.6401,-0.6405,-0.6437,-0.6427,-0.6429,-0.643,-0.6431,-0.648,-0.648,0,0,0,0,0,0,-0.6208,-0.6219,-0.6283,-0.6287,-0.6253,-0.6296,-0.6303,-0.6317,-0.6357,-0.6364,-0.6341,-0.6343,-0.6397,-0.6402,-0.6407,-0.6423,-0.6429,-0.6431,-0.6433,-0.648,-0.648,-0.648,0,0,0,0,0,0,-0.6206,-0.6213,-0.628,-0.6253,-0.6263,-0.6297,-0.6312,-0.6318,-0.633,-0.6364,-0.637,-0.6347,-0.6397,-0.6404,-0.6425,-0.6426,-0.6432,-0.6434,-0.648,-0.648,-0.648,-0.6455,0,0,0,0,0,0,-0.6203,-0.6212,-0.6217,-0.6253,-0.6264,-0.6297,-0.6312,-0.6319,-0.6334,-0.6336,-0.6371,-0.6377,-0.6398,-0.6421,-0.6427,-0.6429,-0.6436,-0.648,-0.648,-0.648,-0.6456,-0.6454,-0.6453,0,0,0,0,0,-0.62,-0.6207,-0.6217,-0.6225,-0.6271,-0.6297,-0.6303,-0.6328,-0.6333,-0.6338,-0.6361,-0.6376,-0.6424,-0.6423,-0.643,-0.6433,-0.648,-0.648,-0.648,-0.6457,-0.6455,-0.6453,0,0,0,0,0,0,-0.617,-0.6213,-0.6224,-0.6243,-0.6267,-0.6303,-0.631,-0.6325,-0.6346,-0.6348,-0.6377,-0.6385,-0.6403,-0.642,-0.6417,-0.6446,-0.6454,-0.6455,-0.6434,-0.6432,-0.643,-0.6426,-0.6438,0,0,0,0,0,-0.6166,-0.6184,-0.622,-0.6234,-0.6245,-0.6275,-0.6288,-0.6305,-0.633,-0.634,-0.6363,-0.6387,-0.6408,-0.6421,-0.6442,-0.6458,-0.6467,-0.6464,-0.6462,-0.646,-0.6461,-0.6472,-0.6471,-0.6479,-0.6479,-0.6479,0,0,-0.6157,-0.6183,-0.6192,-0.6229,-0.6249,-0.6267,-0.6283,-0.6302,-0.6316,-0.6342,-0.6364,-0.6382,-0.641,-0.6429,-0.6439,-0.6444,-0.6461,-0.646,-0.6459,-0.646,-0.6471,-0.6471,-0.647,-0.6479,-0.6479,-0.6479,0,0,-0.6151,-0.6172,-0.6186,-0.6205,-0.6236,-0.6256,-0.6259,-0.6293,-0.6306,-0.6328,-0.6349,-0.6366,-0.6401,-0.642,-0.6434,-0.6435,-0.645,-0.6441,-0.6432,-0.6442,-0.6442,-0.6441,-0.6442,-0.6442,-0.6442,-0.6442,-0.6442,0,-0.6136,-0.6165,-0.6191,-0.6209,-0.6224,-0.6249,-0.6263,-0.6281,-0.6316,-0.6326,-0.6331,-0.6376,-0.6397,-0.6421,-0.6421,-0.6432,-0.6436,-0.6438,-0.644,-0.644,-0.644,-0.6441,-0.6441,-0.644,-0.6441,-0.6441,-0.6441,0,-0.6146,-0.6165,-0.6173,-0.6207,-0.6223,-0.6238,-0.6267,-0.628,-0.6295,-0.6314,-0.6337,-0.6362,-0.6389,-0.6396,-0.6411,-0.6422,-0.6424,-0.6434,-0.6443,-0.6437,-0.6439,-0.6439,-0.6439,-0.6439,-0.644,-0.644,0,0,-0.6122,-0.6171,-0.6173,-0.6189,-0.6224,-0.6239,-0.6256,-0.6283,-0.6294,-0.6317,-0.6332,-0.6361,-0.637,-0.6387,-0.6404,-0.6412,-0.6412,-0.6421,-0.6422,-0.6419,-0.6427,-0.6419,-0.642,-0.6422,-0.6422,-0.6422,-0.6424,0,-0.6122,-0.6154,-0.6177,-0.62,-0.6219,-0.6243,-0.6257,-0.628,-0.6299,-0.6317,-0.6337,-0.6358,-0.6368,-0.6379,-0.6388,-0.641,-0.6414,-0.641,-0.6436,-0.6437,-0.6429,-0.642,-0.6413,-0.6414,-0.6425,-0.6425,-0.6425,0,-0.6125,-0.6148,-0.6173,-0.6206,-0.6215,-0.6227,-0.6254,-0.6271,-0.6297,-0.631,-0.6328,-0.6346,-0.6365,-0.6372,-0.6398,-0.6395,-0.6407,-0.6419,-0.642,-0.6424,-0.6431,-0.6424,-0.6415,-0.6415,-0.6426,-0.6426,-0.6426,0,-0.6106,-0.6143,-0.6163,-0.6176,-0.6215,-0.6224,-0.624,-0.6267,-0.6281,-0.6304,-0.6314,-0.6338,-0.6352,-0.637,-0.6394,-0.6397,-0.6418,-0.6427,-0.643,-0.6429,-0.6434,-0.6433,-0.6426,-0.644,-0.644,-0.644,-0.644,0,-0.6103,-0.6117,-0.6155,-0.6167,-0.6184,-0.6211,-0.6227,-0.6246,-0.6269,-0.6285,-0.6307,-0.6322,-0.6352,-0.637,-0.6389,-0.6408,-0.6414,-0.6425,-0.643,-0.6424,-0.6422,-0.6432,-0.6433,-0.644,-0.644,-0.644,-0.644,0,-0.6085,-0.6111,-0.6134,-0.617,-0.6179,-0.619,-0.622,-0.6233,-0.6252,-0.6272,-0.6279,-0.6309,-0.6332,-0.6358,-0.6389,-0.6402,-0.642,-0.6426,-0.6411,-0.6414,-0.6415,-0.6415,-0.6415,-0.6416,-0.6429,-0.6428,-0.6428,0,-0.6082,-0.6094,-0.613,-0.6143,-0.6159,-0.6179,-0.6194,-0.6221,-0.6236,-0.6267,-0.6276,-0.63,-0.6321,-0.6356,-0.6381,-0.6405,-0.6413,-0.6411,-0.6417,-0.641,-0.6414,-0.6413,-0.6414,-0.641,-0.641,-0.6409,-0.6409,0,-0.6073,-0.6086,-0.6107,-0.6132,-0.615,-0.6171,-0.6193,-0.6202,-0.6233,-0.6249,-0.6272,-0.6289,-0.632,-0.6344,-0.6371,-0.6389,-0.6404,-0.6407,-0.6409,-0.6403,-0.6394,-0.6399,-0.6407,-0.6407,-0.6407,-0.6408,-0.6408,-0.6408,-0.6063,-0.6075,-0.6103,-0.6125,-0.6145,-0.6165,-0.6179,-0.62,-0.6221,-0.6249,-0.6263,-0.6287,-0.6313,-0.6351,-0.6368,-0.6386,-0.6392,-0.6394,-0.6395,-0.6395,-0.6394,-0.639,-0.6391,-0.6391,-0.6392,-0.6392,-0.6392,0,-0.6056,-0.6075,-0.6096,-0.6126,-0.6144,-0.6157,-0.6183,-0.6197,-0.6217,-0.624,-0.6261,-0.6288,-0.6311,-0.6338,-0.6363,-0.6373,-0.6381,-0.6379,-0.6379,-0.6383,-0.6388,-0.6384,-0.6372,-0.6372,-0.6372,-0.6372,-0.6372,-0.6372,-0.6055,-0.6075,-0.6091,-0.6121,-0.614,-0.6164,-0.6177,-0.6196,-0.6214,-0.6244,-0.6264,-0.6281,-0.6306,-0.6333,-0.6355,-0.6362,-0.6371,-0.6367,-0.6376,-0.638,-0.6382,-0.6384,-0.638,-0.6368,-0.6368,-0.637,-0.637,-0.637]},{"header":{"parameterUnit":"m.s-1","parameterCategory":1,"la1":30.2991,"la2":30.254,"lo1":-89.0895,"lo2":-89.0444,"dy":0.0017,"dx":0.0017,"nx":28,"ny":28,"refTime":"2025-09-12T21:00:00:Z","depth":0,"parameterNumber":3,"parameterNumberName":"V-component_of_WINDS"},"data":[0,0,0,0,0,0,0,0,0,0,0,0,0,0,0,0,0,0,0,0,0,0,0,0,0,0,0,0,0,0,0,0,0,0,0,0,0,0,0,0,0,0,0,0,0,0,0,0,0,0,0,0,0,0,0,0,0,0,-1.4487,-1.4487,0,-1.4464,-1.4464,-1.4463,-1.4403,-1.4402,-1.4401,-1.44,-1.4377,-1.4377,-1.4378,0,0,0,0,0,0,0,0,0,0,0,0,0,-1.4482,-1.4483,-1.4487,-1.4487,-1.4487,-1.4464,-1.4464,-1.4463,-1.4404,-1.4402,-1.44,-1.4399,-1.4376,-1.4377,-1.4378,0,0,0,0,0,0,0,0,0,0,0,0,0,-1.4474,-1.4483,-1.4487,-1.4454,-1.4451,-1.4464,-1.4464,-1.4463,-1.4404,-1.4402,-1.44,-1.4398,-1.4376,-1.4377,-1.4378,-1.4422,0,0,-1.4381,-1.4381,0,0,0,0,0,0,0,0,-1.4475,-1.4475,-1.4459,-1.4457,-1.4453,-1.4435,-1.4453,-1.4449,-1.4404,-1.4422,-1.4399,-1.4397,-1.4398,-1.4397,-1.4396,-1.4421,-1.442,-1.4381,-1.4381,-1.4382,-1.4382,0,0,0,0,0,0,0,-1.4476,-1.4475,-1.4478,-1.4459,-1.4455,-1.4441,-1.4438,-1.4452,-1.4421,-1.442,-1.4416,-1.4414,-1.4395,-1.4396,-1.4395,-1.4419,-1.4381,-1.4381,-1.4382,-1.4382,-1.448,-1.4482,0,0,0,0,0,0,-1.4481,-1.4476,-1.4479,-1.4477,-1.4459,-1.4443,-1.4439,-1.4442,-1.442,-1.4415,-1.4415,-1.4411,-1.4395,-1.4394,-1.4394,-1.4445,-1.4382,-1.4382,-1.4383,-1.4478,-1.4481,-1.4483,0,0,0,0,0,0,-1.4481,-1.4481,-1.448,-1.4476,-1.4474,-1.4445,-1.4449,-1.4443,-1.4443,-1.4417,-1.4411,-1.4421,-1.4394,-1.4393,-1.4416,-1.4444,-1.4383,-1.4384,-1.4476,-1.4479,-1.4482,-1.4547,0,0,0,0,0,0,-1.4481,-1.4482,-1.4498,-1.4476,-1.4475,-1.4501,-1.4451,-1.4444,-1.4445,-1.4439,-1.4421,-1.4416,-1.4392,-1.4415,-1.4417,-1.4444,-1.4384,-1.4473,-1.4477,-1.4481,-1.4543,-1.4552,-1.4561,0,0,0,0,0,-1.4481,-1.4517,-1.4499,-1.4499,-1.4494,-1.4503,-1.4502,-1.4473,-1.4447,-1.4463,-1.4447,-1.4417,-1.444,-1.4418,-1.4419,-1.4447,-1.4471,-1.4476,-1.4481,-1.4538,-1.455,-1.456,0,0,0,0,0,0,-1.4542,-1.4513,-1.4493,-1.4523,-1.4516,-1.4493,-1.4512,-1.4487,-1.4487,-1.4481,-1.4446,-1.4443,-1.447,-1.4461,-1.4436,-1.4489,-1.4451,-1.4456,-1.4494,-1.4506,-1.4514,-1.4516,-1.4385,0,0,0,0,0,-1.4559,-1.4568,-1.4543,-1.4572,-1.4569,-1.4542,-1.4544,-1.4523,-1.4514,-1.4511,-1.4496,-1.4489,-1.4495,-1.45,-1.4503,-1.4541,-1.4537,-1.4561,-1.457,-1.4578,-1.4583,-1.4603,-1.4614,-1.4498,-1.4498,-1.4498,0,0,-1.4594,-1.458,-1.4588,-1.4584,-1.4576,-1.4587,-1.4539,-1.4553,-1.4561,-1.4513,-1.4534,-1.4523,-1.4513,-1.4543,-1.4556,-1.4536,-1.4614,-1.4583,-1.459,-1.4591,-1.4609,-1.462,-1.463,-1.4502,-1.4501,-1.45,0,0,-1.4664,-1.4654,-1.4677,-1.467,-1.4659,-1.464,-1.4646,-1.4627,-1.4618,-1.4638,-1.4603,-1.4613,-1.4623,-1.4618,-1.4617,-1.4687,-1.466,-1.4689,-1.4737,-1.4757,-1.4766,-1.4774,-1.48,-1.481,-1.4694,-1.4694,-1.4694,0,-1.4709,-1.4724,-1.4693,-1.4709,-1.4709,-1.4666,-1.4691,-1.4686,-1.4676,-1.4678,-1.4656,-1.4669,-1.4659,-1.4689,-1.4706,-1.4706,-1.4713,-1.4691,-1.4767,-1.4775,-1.4782,-1.4806,-1.4816,-1.4698,-1.4698,-1.4697,-1.4697,0,-1.4781,-1.4792,-1.4813,-1.4805,-1.4807,-1.4828,-1.48,-1.4806,-1.4785,-1.477,-1.4792,-1.4778,-1.478,-1.4785,-1.4764,-1.4812,-1.48,-1.4773,-1.4734,-1.4797,-1.482,-1.4829,-1.4703,-1.4702,-1.4701,-1.47,0,0,-1.4888,-1.4864,-1.4872,-1.4869,-1.4854,-1.4862,-1.4881,-1.4882,-1.4889,-1.4884,-1.49,-1.4911,-1.4886,-1.4885,-1.4863,-1.4881,-1.4939,-1.4852,-1.4851,-1.487,-1.4993,-1.5014,-1.5025,-1.4921,-1.4923,-1.4924,-1.4994,0,-1.4955,-1.4986,-1.4959,-1.4995,-1.5006,-1.4966,-1.4983,-1.4976,-1.4962,-1.497,-1.4954,-1.4963,-1.4929,-1.4928,-1.4944,-1.4929,-1.4964,-1.4923,-1.4936,-1.4937,-1.4941,-1.5037,-1.5059,-1.5125,-1.5002,-1.5004,-1.5005,0,-1.5037,-1.5036,-1.5074,-1.5058,-1.5061,-1.5077,-1.5077,-1.5084,-1.5076,-1.5065,-1.5064,-1.5038,-1.5057,-1.5019,-1.5044,-1.5018,-1.5021,-1.5015,-1.5017,-1.5018,-1.4975,-1.5041,-1.5146,-1.5156,-1.5018,-1.5017,-1.5016,0,-1.5113,-1.5122,-1.5145,-1.5144,-1.5125,-1.5137,-1.513,-1.512,-1.5123,-1.5123,-1.5125,-1.5127,-1.5129,-1.5132,-1.5107,-1.5082,-1.5137,-1.5096,-1.5129,-1.513,-1.5143,-1.5143,-1.5251,-1.5144,-1.5144,-1.5144,-1.5144,0,-1.5191,-1.5215,-1.518,-1.5194,-1.5221,-1.5191,-1.5218,-1.5207,-1.5199,-1.5212,-1.5177,-1.519,-1.5157,-1.5167,-1.5148,-1.5173,-1.5174,-1.5166,-1.5161,-1.5169,-1.5171,-1.5172,-1.5167,-1.5146,-1.5146,-1.5145,-1.5145,0,-1.528,-1.5257,-1.5281,-1.5262,-1.5257,-1.5278,-1.5262,-1.5276,-1.526,-1.5277,-1.5279,-1.5254,-1.5264,-1.524,-1.5246,-1.5234,-1.527,-1.5257,-1.5273,-1.5269,-1.5304,-1.5302,-1.5417,-1.5432,-1.5315,-1.5316,-1.5317,0,-1.5332,-1.535,-1.5333,-1.5339,-1.5334,-1.5344,-1.5347,-1.5318,-1.5323,-1.5316,-1.5331,-1.5338,-1.5342,-1.5359,-1.5342,-1.5347,-1.5335,-1.5375,-1.5335,-1.5344,-1.5337,-1.5336,-1.5339,-1.5384,-1.5385,-1.5386,-1.5387,0,-1.5426,-1.5414,-1.542,-1.5422,-1.5427,-1.5427,-1.5425,-1.5432,-1.5401,-1.5408,-1.5418,-1.5421,-1.5428,-1.5436,-1.5437,-1.543,-1.5404,-1.54,-1.5408,-1.5417,-1.5426,-1.5423,-1.5296,-1.5397,-1.5396,-1.5395,-1.5395,-1.5394,-1.5499,-1.5514,-1.5505,-1.5513,-1.5508,-1.5508,-1.552,-1.5506,-1.5513,-1.5516,-1.5499,-1.5513,-1.5506,-1.5505,-1.5501,-1.5512,-1.5494,-1.5505,-1.5508,-1.5512,-1.5518,-1.5424,-1.5512,-1.5512,-1.5511,-1.5511,-1.5511,0,-1.5592,-1.5585,-1.5593,-1.5591,-1.5598,-1.5572,-1.5569,-1.5577,-1.5589,-1.5585,-1.559,-1.5602,-1.561,-1.5594,-1.5599,-1.5611,-1.56,-1.5614,-1.5613,-1.5612,-1.5533,-1.5527,-1.5623,-1.5623,-1.5623,-1.5623,-1.5623,-1.5623,-1.5642,-1.5666,-1.5654,-1.5676,-1.5669,-1.5682,-1.5683,-1.5682,-1.5679,-1.5694,-1.57,-1.569,-1.5681,-1.5686,-1.5692,-1.5687,-1.5692,-1.5711,-1.5702,-1.5629,-1.5618,-1.5607,-1.5601,-1.5711,-1.5712,-1.578,-1.578,-1.5781]}]]